Saranac Lake, NY

3:28 AM EDT on June 26, 2017 (GMT -0400)
Adirondack Regional

Weather History for KSLK - June, 2012

Change the Weather History Date:

Thursday, June 28, 2012

  Actual Average Record
Temperature  
Mean Temperature 62 °F 63 °F  
Max Temperature 78 °F 75 °F 87 °F (1963)
Min Temperature 45 °F 50 °F 32 °F (1980)
Degree Days  
Heating Degree Days 4 4  
Month to date heating degree days 178  
Since 1 June heating degree days 178  
Since 1 July heating degree days 9412  
Growing Degree Days 11 (Base 50)    
Moisture  
Dew Point 50 °F    
Average Humidity 64    
Maximum Humidity 100    
Minimum Humidity 27    
Precipitation  
Precipitation 0.00 in 0.12 in 1.21 in (2013)
Month to date precipitation 2.93 3.61  
Year to date precipitation 14.92 15.96  
Sea Level Pressure  
Sea Level Pressure 29.76 in    
Wind  
Wind Speed 3 mph (SW)    
Max Wind Speed 10 mph    
Max Gust Speed 16 mph    
Visibility 6 miles    
Events Fog    
T = Trace of Precipitation, MM = Missing Value Source: NWS Daily Summary

Daily Weather History Graph

Daily Weather History Graph

Search for Another Location

Airport or City:

Trip Planner

Search our weather history database for the weather conditions in past years. The results will help you decide how hot, cold, wet, or windy it might be!

Date:

Astronomy

Jun. 28, 2012 Rise Set
Actual Time 5:15 AM EDT 8:45 PM EDT
Civil Twilight 4:38 AM EDT 9:21 PM EDT
Nautical Twilight 3:50 AM EDT 10:09 PM EDT
Astronomical Twilight 2:48 AM EDT 11:11 PM EDT
Moon 3:09 PM EDT (6/28) 12:55 AM EDT (6/28)
Length of Visible Light 16h 43m
Length of Day
15h 30m
Waxing Gibbous, 67% of the Moon is Illuminated
Jun 28
Waxing Gibbous
Jul 3
Full
Jul 10
Last Quarter
Jul 19
New
Jul 26
First Quarter

Hourly Weather History & Observations

Time (EDT) Temp. Dew Point Humidity Pressure Visibility Wind Dir Wind Speed Gust Speed Precip Events Conditions
12:51 AM 55.0 °F 54.0 °F 96% 29.78 in 10.0 mi SSW 3.5 mph - N/A   Overcast
1:51 AM 55.9 °F 54.0 °F 93% 29.77 in 10.0 mi SW 4.6 mph - N/A   Mostly Cloudy
2:51 AM 55.0 °F 53.1 °F 93% 29.77 in 10.0 mi Calm Calm - N/A   Mostly Cloudy
3:33 AM 51.8 °F 50.0 °F 94% 29.77 in 1.5 mi Calm Calm - N/A   Partly Cloudy
3:39 AM 51.8 °F 51.8 °F 100% 29.77 in 0.8 mi Calm Calm - N/A   Mist
3:51 AM 51.1 °F 51.1 °F 100% 29.77 in 0.5 mi Calm Calm - N/A Fog Fog
3:58 AM 48.2 °F 48.2 °F 100% 29.77 in 0.2 mi Calm Calm - N/A Fog Fog
4:51 AM 46.9 °F 46.9 °F 100% 29.78 in 0.8 mi Calm Calm - N/A   Mist
4:59 AM 46.4 °F 46.4 °F 100% 29.78 in 1.0 mi Calm Calm - N/A   Mist
5:05 AM 46.4 °F 44.6 °F 93% 29.78 in 0.2 mi Calm Calm - N/A Fog Fog
5:35 AM 46.4 °F 46.4 °F 100% 29.79 in 1.0 mi Calm Calm - N/A   Mist
5:51 AM 45.0 °F 44.1 °F 97% 29.79 in 1.0 mi Calm Calm - N/A   Mist
6:12 AM 46.4 °F 46.4 °F 100% 29.79 in 2.0 mi Calm Calm - N/A   Scattered Clouds
6:20 AM 48.2 °F 48.2 °F 100% 29.79 in 3.0 mi Calm Calm - N/A   Partly Cloudy
6:27 AM 50.0 °F 48.2 °F 94% 29.79 in 2.0 mi Calm Calm - N/A   Clear
6:42 AM 51.8 °F 50.0 °F 94% 29.79 in 4.0 mi Calm Calm - N/A   Clear
6:51 AM 51.1 °F 50.0 °F 96% 29.80 in 3.0 mi Calm Calm - N/A   Clear
7:51 AM 57.9 °F 54.0 °F 87% 29.80 in 10.0 mi SW 4.6 mph - N/A   Clear
8:51 AM 63.0 °F 55.0 °F 75% 29.79 in 10.0 mi SW 8.1 mph - N/A   Clear
9:51 AM 66.0 °F 55.0 °F 68% 29.78 in 10.0 mi SW 8.1 mph - N/A   Clear
10:51 AM 71.1 °F 48.9 °F 45% 29.77 in 10.0 mi Variable 5.8 mph - N/A   Clear
11:51 AM 73.0 °F 48.0 °F 41% 29.76 in 10.0 mi WNW 8.1 mph - N/A   Partly Cloudy
12:51 PM 73.9 °F 44.1 °F 34% 29.76 in 10.0 mi NW 9.2 mph - N/A   Clear
1:51 PM 75.9 °F 43.0 °F 31% 29.75 in 10.0 mi Variable 6.9 mph - N/A   Clear
2:51 PM 75.9 °F 39.9 °F 27% 29.74 in 10.0 mi Variable 3.5 mph - N/A   Clear
3:51 PM 77.0 °F 42.1 °F 29% 29.73 in 10.0 mi West 8.1 mph - N/A   Clear
5:51 PM 75.0 °F 46.9 °F 37% 29.73 in 10.0 mi Variable 3.5 mph - N/A   Clear
6:51 PM 75.0 °F 53.1 °F 46% 29.70 in 10.0 mi Calm Calm - N/A   Clear
7:51 PM 71.1 °F 57.0 °F 61% 29.70 in 10.0 mi Calm Calm - N/A   Clear
8:51 PM 66.2 °F 55.4 °F 68% 29.72 in 10.0 mi Calm Calm - N/A   Clear
9:51 PM 61.0 °F 55.9 °F 83% 29.71 in 10.0 mi Calm Calm - N/A   Clear
10:51 PM 57.0 °F 54.0 °F 89% 29.70 in 10.0 mi South 3.5 mph - N/A   Clear
11:51 PM 57.9 °F 55.9 °F 93% 29.69 in 10.0 mi Calm Calm - N/A   Clear